Zurück zum Katalog

COSMOS 1020

AktivNavigationLEO
NORAD 10937·PAYLOAD·🇷🇺 Russia

Gestartet Jun 7, 1978 von Plesetsk Cosmodrome

Loading…

Nächste Überflüge (nächste 24 Stunden)

TLE

AktuellSource: Space-Track

Epoche: Sep 14, 2026, 06:17 UTC

1 10937U 78056H   26257.26238401 -.00000014  00000-0  14054-4 0  9998
2 10937  74.0306   6.5996 0049073  35.1676 325.2600 12.54559762210599

Verfolge COSMOS 1020 in Echtzeit mit AllMySat

Download on the App Store